TimeCST,TemperatureF,Dew PointF,Humidity,Sea Level PressureIn,VisibilityMPH,Wind Direction,Wind SpeedMPH,Gust SpeedMPH,PrecipitationIn,Events,Conditions,WindDirDegrees,DateUTC
12:15 AM,55.8,24.8,30,30.08,10.0,SSE,12.7,19.6,N/A,,Overcast,150,2013-02-20 06:15:00
12:35 AM,55.4,25.0,31,30.07,10.0,SE,11.5,-,N/A,,Overcast,130,2013-02-20 06:35:00
12:55 AM,55.0,23.7,30,30.07,10.0,SE,11.5,21.9,N/A,,Overcast,140,2013-02-20 06:55:00
1:15 AM,54.7,22.3,28,30.07,10.0,SSE,9.2,19.6,N/A,,Overcast,150,2013-02-20 07:15:00
1:35 AM,54.5,21.6,28,30.05,10.0,SE,8.1,-,N/A,,Overcast,140,2013-02-20 07:35:00
1:55 AM,54.5,20.5,27,30.05,10.0,SE,9.2,17.3,N/A,,Overcast,140,2013-02-20 07:55:00
2:15 AM,54.0,20.8,27,30.03,10.0,SE,13.8,19.6,N/A,,Overcast,140,2013-02-20 08:15:00
2:35 AM,54.1,20.1,26,30.05,10.0,SSE,13.8,19.6,N/A,,Overcast,160,2013-02-20 08:35:00
2:55 AM,53.6,20.8,28,30.04,10.0,SSE,15.0,21.9,N/A,,Overcast,150,2013-02-20 08:55:00
3:15 AM,52.9,23.7,32,30.02,10.0,SE,9.2,17.3,N/A,,Overcast,140,2013-02-20 09:15:00
3:35 AM,52.9,23.5,32,30.04,10.0,SSE,5.8,-,N/A,,Overcast,150,2013-02-20 09:35:00
3:55 AM,52.7,28.4,39,30.03,10.0,SE,9.2,16.1,N/A,,Overcast,140,2013-02-20 09:55:00
4:15 AM,52.2,31.3,45,30.02,10.0,SE,9.2,-,N/A,,Overcast,140,2013-02-20 10:15:00
4:35 AM,52.0,35.1,53,30.01,10.0,SSE,8.1,20.7,N/A,,Overcast,150,2013-02-20 10:35:00
5:15 AM,51.3,39.4,64,29.96,10.0,SE,12.7,21.9,N/A,,Mostly Cloudy,140,2013-02-20 11:15:00
5:35 AM,51.1,40.8,68,29.95,10.0,SE,8.1,20.7,N/A,,Mostly Cloudy,140,2013-02-20 11:35:00
5:55 AM,51.3,42.4,72,29.96,10.0,SE,9.2,16.1,N/A,,Overcast,140,2013-02-20 11:55:00
6:15 AM,51.3,43.3,74,29.93,10.0,ESE,11.5,19.6,N/A,,Overcast,120,2013-02-20 12:15:00
6:35 AM,51.4,43.7,75,29.95,10.0,SE,8.1,16.1,N/A,,Overcast,130,2013-02-20 12:35:00
6:55 AM,51.4,43.7,75,29.95,10.0,SE,8.1,-,N/A,,Overcast,140,2013-02-20 12:55:00
7:15 AM,51.6,44.6,77,29.94,10.0,SE,9.2,17.3,N/A,,Overcast,130,2013-02-20 13:15:00
7:35 AM,51.8,44.6,76,29.94,10.0,SE,10.4,16.1,N/A,,Overcast,130,2013-02-20 13:35:00
7:55 AM,51.8,44.6,76,29.96,10.0,SE,5.8,16.1,N/A,,Overcast,140,2013-02-20 13:55:00
8:15 AM,51.8,45.3,79,30.00,10.0,SE,3.5,-,N/A,Rain,Rain,130,2013-02-20 14:15:00
8:35 AM,51.1,46.0,83,30.00,7.0,SSE,3.5,-,N/A,,Drizzle,150,2013-02-20 14:35:00
8:55 AM,50.0,46.9,89,29.99,5.0,SE,6.9,-,N/A,,Drizzle,140,2013-02-20 14:55:00
9:15 AM,50.0,47.3,90,29.98,7.0,SE,6.9,-,N/A,Rain,Light Rain,130,2013-02-20 15:15:00
9:35 AM,49.8,47.3,91,29.98,7.0,SE,5.8,-,N/A,,Overcast,130,2013-02-20 15:35:00
9:55 AM,49.8,47.3,91,29.97,7.0,SE,6.9,-,N/A,,Overcast,140,2013-02-20 15:55:00
10:15 AM,50.0,47.7,92,29.96,7.0,ESE,4.6,-,N/A,,Overcast,120,2013-02-20 16:15:00
10:35 AM,50.2,48.2,93,29.94,7.0,SSE,4.6,-,N/A,,Overcast,150,2013-02-20 16:35:00
10:55 AM,50.9,48.9,93,29.93,10.0,SE,4.6,-,N/A,,Overcast,130,2013-02-20 16:55:00
11:15 AM,51.8,49.5,92,29.93,10.0,SSE,9.2,-,N/A,,Overcast,150,2013-02-20 17:15:00
11:35 AM,52.7,50.4,92,29.92,10.0,SE,6.9,-,N/A,,Overcast,140,2013-02-20 17:35:00
11:55 AM,53.1,51.1,93,29.91,7.0,SE,6.9,16.1,N/A,,Overcast,140,2013-02-20 17:55:00
12:15 PM,53.1,51.1,93,29.91,7.0,SE,6.9,16.1,N/A,,Overcast,140,2013-02-20 18:15:00
12:35 PM,53.4,51.8,94,29.88,4.0,SE,10.4,-,N/A,,Overcast,130,2013-02-20 18:35:00
12:55 PM,53.6,52.2,95,29.87,4.0,SE,9.2,16.1,N/A,,Overcast,140,2013-02-20 18:55:00
1:15 PM,54.1,52.7,95,29.85,3.0,SE,10.4,17.3,N/A,,Overcast,140,2013-02-20 19:15:00
1:35 PM,54.5,53.2,96,29.85,2.5,SE,8.1,-,N/A,,Overcast,140,2013-02-20 19:35:00
1:55 PM,55.0,54.0,96,29.83,2.5,SE,8.1,-,N/A,,Overcast,140,2013-02-20 19:55:00
2:15 PM,55.6,54.5,96,29.82,2.5,SE,5.8,-,N/A,,Overcast,130,2013-02-20 20:15:00
2:35 PM,56.3,55.0,96,29.80,3.0,SE,5.8,-,N/A,,Overcast,140,2013-02-20 20:35:00
2:55 PM,56.7,55.2,95,29.80,4.0,SE,10.4,-,N/A,,Overcast,130,2013-02-20 20:55:00
3:15 PM,56.5,55.4,96,29.78,3.0,ESE,6.9,-,N/A,,Overcast,120,2013-02-20 21:15:00
3:35 PM,56.5,55.4,96,29.79,2.5,ESE,6.9,-,N/A,,Overcast,120,2013-02-20 21:35:00
3:55 PM,56.7,55.9,97,29.77,1.5,SE,8.1,-,N/A,,Overcast,130,2013-02-20 21:55:00
4:15 PM,57.0,56.3,97,29.77,1.5,SE,10.4,17.3,N/A,,Overcast,130,2013-02-20 22:15:00
4:35 PM,57.2,56.5,97,29.76,1.5,East,6.9,-,N/A,,Overcast,100,2013-02-20 22:35:00
4:55 PM,55.6,54.9,97,29.76,1.0,East,8.1,-,N/A,,Overcast,90,2013-02-20 22:55:00
5:15 PM,55.4,54.7,97,29.75,0.8,East,8.1,-,N/A,,Overcast,90,2013-02-20 23:15:00
5:35 PM,55.0,54.7,99,29.75,0.8,East,8.1,-,N/A,,Overcast,80,2013-02-20 23:35:00
5:55 PM,55.4,54.9,98,29.74,0.5,East,8.1,-,N/A,Fog,Fog,100,2013-02-20 23:55:00
6:15 PM,55.4,55.0,99,29.73,0.5,East,6.9,-,N/A,Fog,Fog,100,2013-02-21 00:15:00
6:35 PM,55.4,55.4,100,29.72,1.0,East,6.9,-,N/A,,Overcast,100,2013-02-21 00:35:00
6:55 PM,55.6,55.4,99,29.71,1.0,East,6.9,-,N/A,,Overcast,100,2013-02-21 00:55:00
7:15 PM,55.8,55.6,99,29.71,1.0,East,4.6,-,N/A,,Overcast,100,2013-02-21 01:15:00
7:35 PM,56.5,56.3,99,29.71,1.0,ESE,4.6,-,N/A,,Overcast,110,2013-02-21 01:35:00
7:55 PM,57.4,57.2,99,29.70,1.0,East,4.6,-,N/A,,Overcast,100,2013-02-21 01:55:00
8:15 PM,60.4,60.3,99,29.69,2.0,SE,12.7,18.4,N/A,,Overcast,130,2013-02-21 02:15:00
8:35 PM,60.8,60.6,99,29.68,2.5,SE,13.8,19.6,N/A,,Overcast,140,2013-02-21 02:35:00
8:55 PM,61.2,61.0,99,29.67,3.0,SE,12.7,20.7,N/A,,Overcast,140,2013-02-21 02:55:00
9:15 PM,61.7,61.2,98,29.66,4.0,SSE,13.8,19.6,N/A,,Overcast,150,2013-02-21 03:15:00
9:35 PM,62.1,61.3,97,29.66,5.0,SSE,12.7,20.7,N/A,,Overcast,150,2013-02-21 03:35:00
9:55 PM,62.6,61.7,97,29.66,7.0,SSE,12.7,21.9,0.01,,Overcast,160,2013-02-21 03:55:00
10:15 PM,63.0,61.7,96,29.65,7.0,SSE,13.8,20.7,N/A,,Overcast,160,2013-02-21 04:15:00
10:35 PM,63.5,61.7,94,29.65,10.0,SSE,11.5,23.0,N/A,,Overcast,160,2013-02-21 04:35:00
10:55 PM,64.0,61.5,91,29.65,10.0,South,18.4,24.2,N/A,,Overcast,170,2013-02-21 04:55:00
11:15 PM,64.4,61.3,90,29.64,10.0,South,18.4,24.2,N/A,,Overcast,170,2013-02-21 05:15:00
11:35 PM,64.6,61.5,90,29.64,10.0,South,19.6,27.6,N/A,,Overcast,170,2013-02-21 05:35:00
11:55 PM,64.8,61.3,89,29.64,10.0,SSE,18.4,25.3,N/A,,Overcast,160,2013-02-21 05:55:00